Chanute, KS

5:28 AM CST on December 10, 2016 (GMT -0600)
Chanute Martin Johnson

Weather History for KCNU - January, 2013

Change the Weather History Date:

Friday, January 11, 2013

  Actual Average Record
Temperature  
Mean Temperature 54 °F 32 °F  
Max Temperature 62 °F 42 °F 69 °F (1898)
Min Temperature 46 °F 23 °F -12 °F (1918)
Degree Days  
Heating Degree Days 11 33  
Month to date heating degree days 321 363  
Since 1 July heating degree days 1724 2156  
Cooling Degree Days 0 0  
Month to date cooling degree days 0 0  
Year to date cooling degree days 0 0  
Growing Degree Days 3 (Base 50)    
Moisture  
Dew Point 46 °F    
Average Humidity 74    
Maximum Humidity 93    
Minimum Humidity 55    
Precipitation  
Precipitation 0.00 in 0.03 in 0.25 in (1946)
Month to date precipitation 0.40 0.43  
Year to date precipitation 0.40 0.43  
Sea Level Pressure  
Sea Level Pressure 29.72 in    
Wind  
Wind Speed 17 mph (South)    
Max Wind Speed 30 mph    
Max Gust Speed 36 mph    
Visibility 9 miles    
Events      
T = Trace of Precipitation, MM = Missing Value Source: NWS Daily Summary

Daily Weather History Graph

Daily Weather History Graph

Search for Another Location

Airport or City:

Trip Planner

Search our weather history database for the weather conditions in past years. The results will help you decide how hot, cold, wet, or windy it might be!

Date:

Astronomy

Jan. 11, 2013 Rise Set
Actual Time 7:36 AM CST 5:23 PM CST
Civil Twilight 7:08 AM CST 5:52 PM CST
Nautical Twilight 6:35 AM CST 6:24 PM CST
Astronomical Twilight 6:04 AM CST 6:56 PM CST
Moon 7:11 AM CST (1/11) 5:41 PM CST (1/11)
Length of Visible Light 10h 44m
Length of Day
9h 46m
Waning Crescent, 0% of the Moon is Illuminated
Jan 11
Waning Crescent
Jan 11
New
Jan 18
First Quarter
Jan 26
Full
Feb 3
Last Quarter

Hourly Weather History & Observations

Time (CST) Temp. Windchill Dew Point Humidity Pressure Visibility Wind Dir Wind Speed Gust Speed Precip Events Conditions
12:52 AM 50.0 °F - 48.9 °F 96% 29.78 in 7.0 mi South 12.7 mph - N/A   Overcast
1:10 AM 50.0 °F - 48.2 °F 94% 29.78 in 7.0 mi South 17.3 mph 23.0 mph 0.01 in   Overcast
1:24 AM 50.0 °F - 48.2 °F 94% 29.78 in 7.0 mi SSW 16.1 mph - N/A   Overcast
1:52 AM 50.0 °F - 48.9 °F 96% 29.78 in 6.0 mi SSW 15.0 mph - 0.01 in   Overcast
2:34 AM 50.0 °F - 48.2 °F 94% 29.78 in 7.0 mi SSW 13.8 mph - N/A   Overcast
2:52 AM 50.0 °F - 48.0 °F 93% 29.78 in 8.0 mi SSW 12.7 mph - N/A   Overcast
3:00 AM 50.0 °F - 48.2 °F 94% 29.79 in 9.0 mi SSW 13.8 mph - N/A   Overcast
3:52 AM 50.0 °F - 46.9 °F 89% 29.75 in 10.0 mi South 13.8 mph - N/A   Overcast
4:14 AM 48.2 °F - 46.4 °F 93% 29.75 in 10.0 mi South 16.1 mph - N/A   Mostly Cloudy
4:20 AM 48.2 °F - 46.4 °F 93% 29.74 in 10.0 mi South 15.0 mph - N/A   Mostly Cloudy
4:31 AM 48.2 °F - 46.4 °F 93% 29.74 in 8.0 mi South 16.1 mph 23.0 mph N/A   Overcast
4:52 AM 48.9 °F - 46.9 °F 93% 29.73 in 9.0 mi South 16.1 mph - N/A   Overcast
5:03 AM 48.2 °F - 46.4 °F 93% 29.73 in 10.0 mi South 13.8 mph - N/A   Overcast
5:47 AM 46.4 °F 40.4 °F 44.6 °F 93% 29.73 in 10.0 mi South 13.8 mph - N/A   Scattered Clouds
5:52 AM 46.9 °F - 45.0 °F 93% 29.73 in 10.0 mi South 13.8 mph - N/A   Scattered Clouds
6:05 AM 46.4 °F 40.7 °F 44.6 °F 93% 29.73 in 10.0 mi South 12.7 mph - N/A   Mostly Cloudy
6:44 AM 46.4 °F 39.8 °F 44.6 °F 93% 29.71 in 9.0 mi South 16.1 mph - N/A   Mostly Cloudy
6:52 AM 46.0 °F 39.3 °F 44.1 °F 93% 29.71 in 9.0 mi South 16.1 mph - N/A   Scattered Clouds
7:52 AM 46.0 °F 39.6 °F 43.0 °F 89% 29.73 in 10.0 mi South 15.0 mph - N/A   Clear
8:52 AM 46.9 °F - 44.1 °F 90% 29.73 in 10.0 mi South 13.8 mph - N/A   Clear
9:52 AM 50.0 °F - 45.0 °F 83% 29.73 in 10.0 mi South 16.1 mph 23.0 mph N/A   Clear
10:52 AM 55.9 °F - 46.0 °F 69% 29.70 in 10.0 mi SSW 21.9 mph 29.9 mph N/A   Clear
11:52 AM 57.9 °F - 46.0 °F 65% 29.68 in 10.0 mi SSW 21.9 mph 31.1 mph N/A   Clear
12:52 PM 59.0 °F - 46.0 °F 62% 29.65 in 10.0 mi South 20.7 mph 28.8 mph N/A   Clear
1:52 PM 60.1 °F - 45.0 °F 57% 29.63 in 10.0 mi South 17.3 mph 26.5 mph N/A   Clear
2:52 PM 60.1 °F - 46.0 °F 60% 29.63 in 10.0 mi South 18.4 mph 28.8 mph N/A   Clear
3:52 PM 60.1 °F - 45.0 °F 57% 29.63 in 10.0 mi South 20.7 mph 34.5 mph N/A   Clear
4:52 PM 60.1 °F - 46.0 °F 60% 29.63 in 10.0 mi South 18.4 mph - N/A   Clear
5:52 PM 59.0 °F - 45.0 °F 60% 29.64 in 10.0 mi South 17.3 mph - N/A   Clear
6:52 PM 59.0 °F - 45.0 °F 60% 29.65 in 10.0 mi South 15.0 mph - N/A   Clear
7:52 PM 59.0 °F - 45.0 °F 60% 29.67 in 10.0 mi South 17.3 mph - N/A   Clear
8:52 PM 60.1 °F - 45.0 °F 57% 29.68 in 10.0 mi South 18.4 mph 26.5 mph N/A   Clear
9:52 PM 59.0 °F - 45.0 °F 60% 29.70 in 10.0 mi SSW 18.4 mph 27.6 mph N/A   Clear
10:52 PM 59.0 °F - 46.0 °F 62% 29.74 in 10.0 mi SW 13.8 mph - N/A   Overcast
11:52 PM 57.9 °F - 36.0 °F 44% 29.77 in 10.0 mi WSW 11.5 mph - N/A   Mostly Cloudy